Location: Newark
(25.6108°S, 54.5803°W)
Time: 14:05:45
(UTC+00:00)

Vanguard 2 - Visible Passes

Search period start: 30 October 2020 00:00
Search period end: 09 November 2020 00:00
Orbit: 554 x 2937 km, 32.9° (Epoch: 30 October)

Date Brightness Start Highest point End Pass type
(mag) Time Alt. Az. Time Alt. Az. Time Alt. Az.
30 Oct 10.2 07:25:14 11° NNW 07:35:03 30° NNE 07:41:54 10° E visible
31 Oct 11.1 05:40:45 14° NNE 05:41:54 14° NNE 05:47:28 10° ENE visible
31 Oct 9.8 07:42:10 11° NW 07:53:14 41° NNE 08:00:24 10° E visible
01 Nov 10.8 05:57:38 20° NNE 06:00:18 22° NNE 06:07:52 10° ENE visible
01 Nov 9.4 07:59:16 10° NW 08:11:21 54° NNE 08:18:36 10° ESE visible
02 Nov 10.5 06:14:27 26° N 06:18:36 30° NNE 06:27:06 10° E visible
02 Nov 9.1 08:17:03 10° NW 08:29:25 71° NNE 08:36:37 10° ESE visible
03 Nov 11.4 04:29:47 11° NE 04:29:47 11° NE 04:31:03 10° ENE visible
03 Nov 10.1 06:31:11 29° NNW 06:36:49 40° NNE 06:45:45 10° E visible
04 Nov 11.1 04:46:27 19° NE 04:46:27 19° NE 04:52:04 10° ENE visible
04 Nov 9.8 06:47:50 30° NNW 06:54:59 52° NNE 07:04:04 10° ESE visible
05 Nov 10.7 05:03:02 28° NE 05:03:02 28° NE 05:11:38 10° E visible
05 Nov 9.6 07:04:25 28° NW 07:13:06 66° NNE 07:22:11 10° ESE visible
06 Nov 10.4 05:19:33 38° NNE 05:19:42 38° NNE 05:30:31 10° E visible
06 Nov 9.4 07:20:56 23° WNW 07:31:11 81° NNE 07:40:10 10° ESE visible
07 Nov 11.5 03:34:37 11° ENE 03:34:37 11° ENE 03:35:06 10° ENE visible
07 Nov 10.1 05:35:59 47° NNE 05:37:52 49° NNE 05:49:00 10° E visible
07 Nov 9.4 07:37:21 18° WNW 07:49:16 86° SSW 07:58:05 10° ESE visible
08 Nov 11.2 03:50:59 19° ENE 03:50:59 19° ENE 03:55:13 10° E visible
08 Nov 9.9 05:52:20 52° NNW 05:55:58 61° NNE 06:07:13 10° ESE visible
08 Nov 9.5 07:53:42 12° WNW 08:07:24 74° SSW 08:15:59 10° ESE visible
